This is the latest recevied weather packets stored in our database for station/object W4MLN-3. If no packets are shown the sender has not sent any weather packets the latest 10 day(s).
| Time | Temp. | Humidity | Pressure | Rain* | Wind** | Luminosity | Snow |
|---|---|---|---|---|---|---|---|
| 1788378003 | 32.22° C | 48% | 1022.8 hPa | 0 mm | - | - | - |
| 1788377703 | 32.22° C | 47% | 1022.9 hPa | 0 mm | - | - | - |
| 1788377435 | 31.67° C | 55% | 1022.9 hPa | 0 mm | - | - | - |
| 1788377103 | 31.11° C | 50% | 1023 hPa | 0 mm | - | - | - |
| 1788376803 | 31.11° C | 57% | 1023.1 hPa | 0 mm | - | - | - |
| 1788376503 | 31.67° C | 55% | 1023.1 hPa | 0 mm | - | - | - |
| 1788376204 | 32.22° C | 55% | 1023.3 hPa | 0 mm | - | - | - |
| 1788375924 | 32.22° C | 53% | 1023.2 hPa | 0 mm | - | - | - |
| 1788375666 | 32.78° C | 52% | 1023.3 hPa | 0 mm | - | - | - |
| 1788375324 | 33.33° C | 45% | 1023.3 hPa | 0 mm | - | - | - |
| 1788375003 | 33.33° C | 45% | 1023.4 hPa | 0 mm | - | - | - |
| 1788374703 | 33.89° C | 47% | 1023.4 hPa | 0 mm | - | - | - |
| 1788374403 | 33.89° C | 51% | 1023.4 hPa | 0 mm | - | - | - |
| 1788374103 | 33.33° C | 49% | 1023.5 hPa | 0 mm | - | - | - |
| 1788373803 | 33.33° C | 47% | 1023.4 hPa | 0 mm | - | - | - |
| 1788373545 | 32.78° C | 49% | 1023.4 hPa | 0 mm | - | - | - |
| 1788373245 | 32.78° C | 50% | 1023.3 hPa | 0 mm | - | - | - |
| 1788372924 | 32.78° C | 50% | 1023.4 hPa | 0 mm | - | - | - |
| 1788372603 | 32.78° C | 50% | 1023.4 hPa | 0 mm | - | - | - |
| 1788372303 | 32.22° C | 51% | 1023.4 hPa | 0 mm | - | - | - |
| 1788372003 | 32.22° C | 52% | 1023.5 hPa | 0 mm | - | - | - |
| 1788371703 | 32.22° C | 50% | 1023.5 hPa | 0 mm | - | - | - |
| 1788371403 | 31.67° C | 49% | 1023.6 hPa | 0 mm | - | - | - |
| 1788371103 | 31.67° C | 49% | 1023.7 hPa | 0 mm | - | - | - |
| 1788370803 | 31.11° C | 54% | 1023.7 hPa | 0 mm | - | - | - |
* Rain latest hour (hover to see other rain measurements)
** Current wind speed in m/s (hover to see current wind gust speed)